Tracking 30261 objects as of 18-Feb-2025
HD Live streaming from Space Station
objects crossing your sky now

COSMOS 1655

Track COSMOS 1655 now!
10-day predictions
COSMOS 1655 is classified as:


NORAD ID: 15751
Int'l Code: 1985-041A
Perigee: 980.3 km
Apogee: 1,019.7 km
Inclination: 82.9 °
Period: 105.0 minutes
Semi major axis: 7370 km
RCS: 1.6706 m2 (large)
Launch date: May 30, 1985
Source: Commonwealth of Independent States (former USSR) (CIS)
Launch site: PLESETSK MISSILE AND SPACE COMPLEX (PKMTR)
Your satellite tracking list
Your tracking list is empty




NASA's NSSDC Master Catalog

Two Line Element Set (TLE):
1 15751U 85041A   25048.96564947  .00000067  00000-0  57358-4 0  9991
2 15751  82.9453  63.1418 0026741   3.9999  60.4159 13.71881988988301
Source of the keplerian elements: AFSPC